Home > Weather > Brisbane > Past weeks

Flag for Australia Weather for the Past 2 Weeks in Brisbane, Queensland, Australia

Now
64 °F

Passing clouds.


Feels Like: 64 °F
Forecast: 56 / 79 °F
Wind: 8 mph from Southwest

Location: Brisbane Airport M. O

Current Time: May 6, 2016 at 2:25:41 AM

Latest Report: May 6, 2016 at 2:00 AM


Visibility: N/A

Pressure: 30.07 "Hg

Humidity: 88%

Dew Point: 61 °F

Location of BrisbaneLocation

Historic Weather in Brisbane — Graph

°F

Brisbane Temperature Yesterday

Maximum temperature yesterday: 77 °F (at 10:30 AM)
Minimum temperature yesterday: 61 °F (at 3:00 AM)
Average temperature yesterday: 68 °F

High & Low Weather Summary for the Past Weeks

 TemperatureHumidityPressure
High82 °F (Apr 22, 12:00 PM)100% (Apr 23, 12:00 AM)30.24 "Hg (Apr 23, 12:00 AM)
Low61 °F (Apr 25, 5:00 AM)24% (May 4, 12:00 PM)29.83 "Hg (May 3, 1:00 PM)
Average71 °F76%30.09 "Hg
* Reported Apr 21 1:00 AM — May 6 1:00 AM, Brisbane, Weather by CustomWeather, © 2016

Note: Actual official high and low records may vary slightly from our data, if they occured in-between our weather recording intervals... More about our weather records

Advertising

Brisbane Weather History for the Previous 24 Hours

Scroll right to see more
 ConditionsComfort  
Time TempWeatherWind HumidityBarometerVisibility
1:00 AM
Fri, May 6
63 °FPassing clouds.6 mph94%30.07 "HgN/A
12:00 AM63 °FPassing clouds.7 mph94%30.09 "HgN/A
11:30 PM
Thu, May 5
64 °FPassing clouds.6 mph88%30.09 "HgN/A
11:00 PM64 °FPassing clouds.6 mph88%30.09 "HgN/A
10:30 PM66 °FPassing clouds.5 mph83%30.09 "HgN/A
10:00 PM66 °FPassing clouds.6 mph83%30.09 "HgN/A
9:30 PM66 °FPassing clouds.5 mph83%30.09 "HgN/A
9:00 PM66 °FPassing clouds.1 mph83%30.09 "HgN/A
8:30 PM68 °FPassing clouds.3 mph88%30.09 "HgN/A
8:00 PM70 °FPassing clouds.3 mph83%30.09 "HgN/A
7:00 PM70 °FClear.5 mph78%30.09 "Hg10 mi
6:00 PM72 °FPassing clouds.6 mph69%30.07 "HgN/A
5:30 PM72 °FPassing clouds.6 mph69%30.07 "HgN/A
5:00 PM73 °FPassing clouds.6 mph65%30.07 "HgN/A
4:30 PM73 °FPassing clouds.8 mph69%30.04 "HgN/A
4:00 PM75 °FPassing clouds.9 mph61%30.04 "HgN/A
3:30 PM75 °FPassing clouds.9 mph61%30.04 "HgN/A
3:00 PM75 °FPassing clouds.8 mph61%30.04 "HgN/A
2:00 PM77 °FPassing clouds.9 mph57%30.04 "HgN/A
1:30 PM77 °FPassing clouds.9 mph54%30.04 "HgN/A
1:00 PM77 °FPassing clouds.10 mph54%30.07 "HgN/A
12:00 PM77 °FPassing clouds.10 mph54%30.09 "HgN/A
11:30 AM77 °FPassing clouds.10 mph57%30.09 "HgN/A
11:00 AM77 °FPassing clouds.9 mph57%30.09 "HgN/A
10:30 AM77 °FPassing clouds.7 mph54%30.12 "HgN/A
10:00 AM75 °FPassing clouds.7 mph61%30.12 "HgN/A
9:30 AM73 °FPassing clouds.8 mph61%30.12 "HgN/A
9:00 AM72 °FPassing clouds.9 mph65%30.12 "HgN/A
8:30 AM68 °FPassing clouds.9 mph73%30.12 "HgN/A
8:00 AM66 °FPassing clouds.9 mph78%30.12 "HgN/A
7:30 AM64 °FPassing clouds.9 mph83%30.12 "HgN/A
7:00 AM63 °FPassing clouds.9 mph88%30.09 "HgN/A
6:30 AM61 °FPassing clouds.10 mph88%30.09 "HgN/A
6:00 AM61 °FPassing clouds.9 mph83%30.09 "HgN/A
5:30 AM61 °FSunny.10 mph83%30.07 "Hg10 mi
5:00 AM61 °FClear.9 mph88%30.07 "Hg10 mi
4:30 AM61 °FClear.10 mph88%30.07 "Hg10 mi
4:00 AM61 °FClear.9 mph88%30.07 "Hg10 mi
3:30 AM61 °FClear.9 mph88%30.07 "Hg10 mi
3:00 AM61 °FClear.9 mph94%30.04 "Hg10 mi
2:30 AM64 °FClear.9 mph88%30.04 "Hg10 mi
2:00 AM63 °FClear.8 mph94%30.04 "Hg10 mi
Weather by CustomWeather, © 2016

See weather overviewHow to use our weather pages